カタログに戻る

CZ-6A DEB

運用中SSO
NORAD 55536·DEBRIS·🇨🇳 China

打ち上げ Nov 11, 2022 から Taiyuan Satellite Launch Center

Loading…

次のパス (今後24時間)

TLE

最新Source: Space-Track

元期: Sep 13, 2026, 23:46 UTC

1 55536U 22151YJ  26256.99043178  .00003270  00000-0  13521-2 0  9993
2 55536  98.7992 269.2861 0045123  55.6410 304.9026 14.26817262193107

AllMySatでCZ-6A DEBをリアルタイム追跡

Download on the App Store